| time (UTC) | temp F | wind direction | speed MPH | gust MPH | rain 1hr in | rain 24hr in | rain mn in | humidity % | barometer mb |
| 20260505041508 | 48 | 285 | 5.0 | 8.0 | 0.00 | 0.00 | 0.00 | 68 | 1001.4 |
| 20260505041005 | 48 | 301 | 5.0 | 8.0 | 0.00 | 0.00 | 0.00 | 68 | 1010.5 |
| 20260505040505 | 48 | 277 | 3.0 | 7.0 | 0.00 | 0.00 | 0.00 | 69 | 1010.4 |
| 20260505040006 | 48 | 291 | 3.0 | 4.0 | 0.00 | 0.00 | 0.00 | 71 | 1010.4 |
| 20260505040004 | 48 | 291 | 3.0 | 4.0 | 0.00 | 0.00 | 0.00 | 71 | 1001.1 |
| 20260505035504 | 48 | 9 | 1.0 | 2.0 | 0.00 | 0.00 | 0.00 | 70 | 1010.3 |
| 20260505035005 | 48 | 9 | 1.0 | 2.0 | 0.00 | 0.00 | 0.00 | 72 | 1010.1 |
| 20260505034504 | 48 | 9 | 0.0 | 1.0 | 0.00 | 0.00 | 0.00 | 73 | 1010.2 |
| 20260505034502 | 48 | 9 | 0.0 | 1.0 | 0.00 | 0.00 | 0.00 | 73 | 1000.9 |
| 20260505034007 | 48 | 9 | 0.0 | 2.0 | 0.00 | 0.00 | 0.00 | 71 | 1010.3 |
| 20260505033005 | 48 | 9 | 0.0 | 0.0 | 0.00 | 0.00 | 0.00 | 72 | 1010.1 |
| 20260505032459 | 48 | 9 | 0.0 | 1.0 | 0.00 | 0.00 | 0.00 | 70 | 1010.1 |
| 20260505031505 | 48 | 9 | 0.0 | 2.0 | 0.00 | 0.00 | 0.00 | 68 | 1000.8 |
| 20260505031005 | 48 | 9 | 1.0 | 2.0 | 0.00 | 0.00 | 0.00 | 66 | 1010.0 |
| 20260505030504 | 48 | 9 | 0.0 | 0.0 | 0.00 | 0.00 | 0.00 | 67 | 1010.0 |
| 20260505030006 | 48 | 9 | 0.0 | 0.0 | 0.00 | 0.00 | 0.00 | 66 | 1010.0 |
| 20260505030003 | 48 | 9 | 0.0 | 0.0 | 0.00 | 0.00 | 0.00 | 66 | 1000.7 |
| 20260505025504 | 48 | 9 | 0.0 | 0.0 | 0.00 | 0.00 | 0.00 | 66 | 1010.0 |
| 20260505024505 | 48 | 9 | 0.0 | 0.0 | 0.00 | 0.00 | 0.00 | 66 | 1009.7 |
| 20260505024502 | 48 | 9 | 0.0 | 0.0 | 0.00 | 0.00 | 0.00 | 66 | 1000.4 |
| 20260505024004 | 49 | 9 | 0.0 | 3.0 | 0.00 | 0.00 | 0.00 | 66 | 1009.6 |
| 20260505023505 | 49 | 9 | 0.0 | 3.0 | 0.00 | 0.00 | 0.00 | 67 | 1009.6 |
| 20260505023008 | 49 | 9 | 0.0 | 1.0 | 0.00 | 0.00 | 0.00 | 67 | 1000.3 |
| 20260505023005 | 49 | 9 | 0.0 | 1.0 | 0.00 | 0.00 | 0.00 | 67 | 1009.5 |
| 20260505022504 | 49 | 9 | 0.0 | 2.0 | 0.00 | 0.00 | 0.00 | 67 | 1009.7 |
| 20260505022012 | 50 | 9 | 0.0 | 14.0 | 0.00 | 0.00 | 0.00 | 66 | 1009.5 |
| 20260505021504 | 50 | 5 | 8.0 | 14.0 | 0.00 | 0.00 | 0.00 | 62 | 1009.5 |
| 20260505021009 | 50 | 49 | 3.0 | 5.0 | 0.00 | 0.00 | 0.00 | 62 | 1009.6 |
| 20260505020501 | 50 | 29 | 1.0 | 2.0 | 0.00 | 0.00 | 0.00 | 61 | 1009.7 |
| 20260505020014 | 50 | 30 | 0.0 | 3.0 | 0.00 | 0.00 | 0.00 | 59 | 1009.5 |
| 20260505020003 | 50 | 30 | 0.0 | 3.0 | 0.00 | 0.00 | 0.00 | 59 | 1000.2 |
| 20260505015459 | 50 | 30 | 0.0 | 3.0 | 0.00 | 0.00 | 0.00 | 61 | 1009.5 |
| 20260505015010 | 50 | 30 | 2.0 | 4.0 | 0.00 | 0.00 | 0.00 | 60 | 1009.6 |
| 20260505014504 | 50 | 43 | 1.0 | 5.0 | 0.00 | 0.00 | 0.00 | 62 | 1009.4 |
| 20260505014013 | 50 | 355 | 0.0 | 10.0 | 0.00 | 0.00 | 0.00 | 63 | 1009.5 |
| 20260505013504 | 50 | 20 | 5.0 | 14.0 | 0.00 | 0.00 | 0.00 | 62 | 1009.5 |
| 20260505013002 | 50 | 19 | 8.0 | 16.0 | 0.00 | 0.00 | 0.00 | 61 | 1000.2 |
| 20260505012505 | 51 | 31 | 10.0 | 22.0 | 0.00 | 0.00 | 0.00 | 59 | 1009.5 |
| 20260505012006 | 53 | 355 | 13.0 | 22.0 | 0.00 | 0.00 | 0.00 | 54 | 1009.2 |
| 20260505011506 | 53 | 9 | 8.0 | 16.0 | 0.00 | 0.00 | 0.00 | 49 | 999.8 |
| 20260505011013 | 54 | 21 | 8.0 | 17.0 | 0.00 | 0.00 | 0.00 | 47 | 1008.8 |
| 20260505010504 | 54 | 42 | 11.0 | 20.0 | 0.00 | 0.00 | 0.00 | 46 | 1008.6 |
| 20260505010012 | 56 | 34 | 10.0 | 17.0 | 0.00 | 0.00 | 0.00 | 42 | 999.0 |
| 20260505005504 | 56 | 11 | 9.0 | 12.0 | 0.00 | 0.00 | 0.00 | 39 | 1008.4 |
| 20260505005012 | 56 | 21 | 6.0 | 13.0 | 0.00 | 0.00 | 0.00 | 39 | 1008.3 |
| 20260505004503 | 56 | 27 | 5.0 | 14.0 | 0.00 | 0.00 | 0.00 | 38 | 998.8 |
| 20260505004010 | 56 | 20 | 9.0 | 15.0 | 0.00 | 0.00 | 0.00 | 38 | 1008.4 |
| 20260505003505 | 57 | 350 | 9.0 | 15.0 | 0.00 | 0.00 | 0.00 | 38 | 1008.3 |
| 20260505003010 | 57 | 355 | 3.0 | 10.0 | 0.00 | 0.00 | 0.00 | 38 | 1008.5 |
| 20260505003008 | 57 | 355 | 3.0 | 10.0 | 0.00 | 0.00 | 0.00 | 38 | 999.1 |
| 20260505002504 | 57 | 342 | 3.0 | 14.0 | 0.00 | 0.00 | 0.00 | 37 | 1008.4 |
| 20260505002010 | 57 | 17 | 7.0 | 14.0 | 0.00 | 0.00 | 0.00 | 37 | 1008.3 |
| 20260505001505 | 57 | 355 | 4.0 | 15.0 | 0.00 | 0.00 | 0.00 | 37 | 1008.2 |
| 20260505001009 | 58 | 58 | 9.0 | 22.0 | 0.00 | 0.00 | 0.00 | 36 | 1008.1 |
| 20260505000504 | 58 | 278 | 4.0 | 22.0 | 0.00 | 0.00 | 0.00 | 36 | 1008.2 |
| 20260505000004 | 58 | 64 | 5.0 | 16.0 | 0.00 | 0.00 | 0.00 | 35 | 998.6 |
| 20260504235504 | 58 | 28 | 6.0 | 14.0 | 0.00 | 0.00 | 0.00 | 35 | 1008.3 |
| 20260504235008 | 58 | 51 | 5.0 | 12.0 | 0.00 | 0.00 | 0.00 | 35 | 1008.3 |
| 20260504234505 | 58 | 345 | 3.0 | 8.0 | 0.00 | 0.00 | 0.00 | 35 | 1008.2 |
| 20260504234012 | 58 | 320 | 2.0 | 12.0 | 0.00 | 0.00 | 0.00 | 36 | 1008.2 |
| 20260504233005 | 58 | 341 | 3.0 | 21.0 | 0.00 | 0.00 | 0.00 | 37 | 1008.1 |
| 20260504233003 | 58 | 341 | 3.0 | 21.0 | 0.00 | 0.00 | 0.00 | 37 | 998.5 |
| 20260504232504 | 58 | 324 | 4.0 | 21.0 | 0.00 | 0.00 | 0.00 | 36 | 1008.1 |
| 20260504232005 | 58 | 319 | 5.0 | 16.0 | 0.00 | 0.00 | 0.00 | 36 | 1007.9 |
| 20260504231504 | 58 | 14 | 7.0 | 17.0 | 0.00 | 0.00 | 0.00 | 35 | 1007.7 |
| 20260504231502 | 58 | 14 | 7.0 | 17.0 | 0.00 | 0.00 | 0.00 | 35 | 998.1 |
| 20260504230504 | 58 | 351 | 9.0 | 25.0 | 0.00 | 0.00 | 0.00 | 35 | 1007.2 |
| 20260504230007 | 59 | 20 | 11.0 | 23.0 | 0.00 | 0.00 | 0.00 | 34 | 1007.2 |
| 20260504230004 | 59 | 20 | 11.0 | 23.0 | 0.00 | 0.00 | 0.00 | 34 | 997.6 |
| 20260504225504 | 60 | 360 | 13.0 | 23.0 | 0.00 | 0.00 | 0.00 | 32 | 1007.0 |
| 20260504225005 | 61 | 332 | 5.0 | 16.0 | 0.00 | 0.00 | 0.00 | 29 | 1007.0 |
| 20260504224504 | 61 | 35 | 10.0 | 13.0 | 0.00 | 0.00 | 0.00 | 27 | 1007.1 |
| 20260504224502 | 61 | 35 | 9.0 | 13.0 | 0.00 | 0.00 | 0.00 | 27 | 997.5 |
| 20260504224005 | 61 | 44 | 8.0 | 11.0 | 0.00 | 0.00 | 0.00 | 28 | 1007.1 |
| 20260504223504 | 61 | 34 | 8.0 | 15.0 | 0.00 | 0.00 | 0.00 | 28 | 1007.0 |
| 20260504223003 | 61 | 46 | 4.0 | 26.0 | 0.00 | 0.00 | 0.00 | 29 | 997.7 |
| 20260504222504 | 61 | 248 | 7.0 | 26.0 | 0.00 | 0.00 | 0.00 | 28 | 1007.3 |
| 20260504222005 | 62 | 297 | 7.0 | 13.0 | 0.00 | 0.00 | 0.00 | 26 | 1007.2 |
| 20260504221509 | 62 | 360 | 3.0 | 9.0 | 0.00 | 0.00 | 0.00 | 26 | 997.4 |
| 20260504221000 | 62 | 360 | 3.0 | 10.0 | 0.00 | 0.00 | 0.00 | 26 | 1007.0 |
| 20260504220007 | 63 | 327 | 5.0 | 10.0 | 0.00 | 0.00 | 0.00 | 25 | 1007.0 |
| 20260504220003 | 63 | 327 | 5.0 | 10.0 | 0.00 | 0.00 | 0.00 | 25 | 997.2 |
| 20260504215504 | 64 | 360 | 3.0 | 11.0 | 0.00 | 0.00 | 0.00 | 24 | 1006.9 |
| 20260504214504 | 64 | 15 | 5.0 | 11.0 | 0.00 | 0.00 | 0.00 | 23 | 1006.9 |
| 20260504214006 | 64 | 355 | 5.0 | 15.0 | 0.00 | 0.00 | 0.00 | 25 | 1006.9 |
| 20260504213504 | 64 | 12 | 11.0 | 15.0 | 0.00 | 0.00 | 0.00 | 23 | 1006.9 |
| 20260504213007 | 65 | 26 | 8.0 | 14.0 | 0.00 | 0.00 | 0.00 | 24 | 1006.9 |
| 20260504213003 | 65 | 26 | 7.0 | 14.0 | 0.00 | 0.00 | 0.00 | 24 | 997.1 |
| 20260504212505 | 65 | 69 | 8.0 | 12.0 | 0.00 | 0.00 | 0.00 | 23 | 1006.9 |
| 20260504212005 | 65 | 28 | 8.0 | 16.0 | 0.00 | 0.00 | 0.00 | 24 | 1007.0 |
| 20260504211506 | 65 | 34 | 8.0 | 16.0 | 0.00 | 0.00 | 0.00 | 24 | 1006.9 |
| 20260504211503 | 65 | 34 | 8.0 | 16.0 | 0.00 | 0.00 | 0.00 | 24 | 997.1 |
| 20260504211005 | 65 | 20 | 11.0 | 17.0 | 0.00 | 0.00 | 0.00 | 23 | 1007.1 |
| 20260504210505 | 67 | 24 | 10.0 | 17.0 | 0.00 | 0.00 | 0.00 | 22 | 1007.0 |
| 20260504210006 | 68 | 11 | 5.0 | 13.0 | 0.00 | 0.00 | 0.00 | 23 | 1007.1 |
| 20260504210003 | 68 | 11 | 5.0 | 13.0 | 0.00 | 0.00 | 0.00 | 23 | 997.2 |
| 20260504205504 | 67 | 9 | 6.0 | 14.0 | 0.00 | 0.00 | 0.00 | 23 | 1007.1 |
| 20260504205005 | 67 | 21 | 5.0 | 17.0 | 0.00 | 0.00 | 0.00 | 24 | 1007.2 |
| 20260504204504 | 66 | 355 | 5.0 | 17.0 | 0.00 | 0.00 | 0.00 | 24 | 1007.4 |
| 20260504204502 | 66 | 355 | 5.0 | 17.0 | 0.00 | 0.00 | 0.00 | 24 | 997.5 |
| 20260504204002 | 66 | 40 | 10.0 | 16.0 | 0.00 | 0.00 | 0.00 | 25 | 1007.3 |
| 20260504203505 | 65 | 19 | 10.0 | 17.0 | 0.00 | 0.00 | 0.00 | 25 | 1007.4 |
| 20260504203006 | 66 | 48 | 10.0 | 16.0 | 0.00 | 0.00 | 0.00 | 24 | 1007.4 |
| 20260504203003 | 66 | 48 | 10.0 | 16.0 | 0.00 | 0.00 | 0.00 | 24 | 997.6 |
| 20260504202505 | 66 | 18 | 10.0 | 15.0 | 0.00 | 0.00 | 0.00 | 24 | 1007.5 |
| 20260504202005 | 66 | 350 | 9.0 | 17.0 | 0.00 | 0.00 | 0.00 | 24 | 1007.6 |
| 20260504201504 | 66 | 11 | 6.0 | 14.0 | 0.00 | 0.00 | 0.00 | 27 | 1007.5 |
| 20260504201005 | 65 | 329 | 5.0 | 16.0 | 0.00 | 0.00 | 0.00 | 26 | 1007.6 |
| 20260504200504 | 64 | 343 | 5.0 | 16.0 | 0.00 | 0.00 | 0.00 | 27 | 1007.7 |
| 20260504200005 | 64 | 336 | 6.0 | 16.0 | 0.00 | 0.00 | 0.00 | 25 | 1007.6 |
| 20260504200003 | 64 | 336 | 5.0 | 16.0 | 0.00 | 0.00 | 0.00 | 25 | 997.9 |
| 20260504195504 | 65 | 12 | 5.0 | 19.0 | 0.00 | 0.00 | 0.00 | 24 | 1007.7 |
| 20260504195002 | 66 | 347 | 8.0 | 21.0 | 0.00 | 0.00 | 0.00 | 23 | 1007.6 |
| 20260504194504 | 67 | 188 | 7.0 | 13.0 | 0.00 | 0.00 | 0.00 | 21 | 1007.3 |
| 20260504194502 | 67 | 188 | 7.0 | 13.0 | 0.00 | 0.00 | 0.00 | 21 | 997.5 |
| 20260504194006 | 68 | 199 | 6.0 | 12.0 | 0.00 | 0.00 | 0.00 | 18 | 1007.4 |
| 20260504193505 | 68 | 165 | 7.0 | 13.0 | 0.00 | 0.00 | 0.00 | 20 | 1007.4 |
| 20260504193005 | 67 | 213 | 4.0 | 9.0 | 0.00 | 0.00 | 0.00 | 21 | 1007.3 |
| 20260504193003 | 67 | 213 | 4.0 | 9.0 | 0.00 | 0.00 | 0.00 | 21 | 997.5 |
| 20260504192504 | 67 | 163 | 4.0 | 9.0 | 0.00 | 0.00 | 0.00 | 20 | 1007.3 |
| 20260504192005 | 66 | 16 | 4.0 | 10.0 | 0.00 | 0.00 | 0.00 | 20 | 1007.3 |
| 20260504191504 | 67 | 37 | 6.0 | 9.0 | 0.00 | 0.00 | 0.00 | 20 | 1007.3 |
| 20260504191502 | 67 | 37 | 5.0 | 9.0 | 0.00 | 0.00 | 0.00 | 20 | 997.5 |
| 20260504191005 | 68 | 55 | 4.0 | 9.0 | 0.00 | 0.00 | 0.00 | 21 | 1007.4 |
| 20260504190505 | 67 | 327 | 4.0 | 12.0 | 0.00 | 0.00 | 0.00 | 23 | 1007.4 |
| 20260504190005 | 66 | 355 | 5.0 | 14.0 | 0.00 | 0.00 | 0.00 | 25 | 997.7 |
| 20260504185504 | 65 | 326 | 8.0 | 14.0 | 0.00 | 0.00 | 0.00 | 24 | 1007.6 |
| 20260504185002 | 65 | 281 | 9.0 | 14.0 | 0.00 | 0.00 | 0.00 | 22 | 1007.7 |
| 20260504184504 | 65 | 289 | 3.0 | 8.0 | 0.00 | 0.00 | 0.00 | 22 | 1007.7 |
| 20260504184502 | 65 | 289 | 2.0 | 8.0 | 0.00 | 0.00 | 0.00 | 22 | 998.0 |
| 20260504184005 | 65 | 311 | 3.0 | 8.0 | 0.00 | 0.00 | 0.00 | 21 | 1007.7 |
| 20260504183504 | 65 | 294 | 2.0 | 8.0 | 0.00 | 0.00 | 0.00 | 22 | 1007.8 |
| 20260504183006 | 65 | 288 | 4.0 | 8.0 | 0.00 | 0.00 | 0.00 | 22 | 1007.9 |
| 20260504183002 | 65 | 288 | 3.0 | 8.0 | 0.00 | 0.00 | 0.00 | 22 | 998.1 |
| 20260504182504 | 65 | 238 | 2.0 | 10.0 | 0.00 | 0.00 | 0.00 | 24 | 1007.9 |
| 20260504181505 | 64 | 300 | 5.0 | 11.0 | 0.00 | 0.00 | 0.00 | 21 | 998.2 |
| 20260504181005 | 64 | 290 | 6.0 | 11.0 | 0.00 | 0.00 | 0.00 | 23 | 1008.0 |
| 20260504180504 | 64 | 309 | 5.0 | 12.0 | 0.00 | 0.00 | 0.00 | 22 | 1008.1 |
| 20260504180006 | 65 | 309 | 5.0 | 15.0 | 0.00 | 0.00 | 0.00 | 22 | 1008.0 |
| 20260504180004 | 65 | 309 | 4.0 | 15.0 | 0.00 | 0.00 | 0.00 | 22 | 998.2 |
| 20260504175505 | 65 | 355 | 10.0 | 16.0 | 0.00 | 0.00 | 0.00 | 21 | 1008.1 |
| 20260504175006 | 66 | 348 | 6.0 | 17.0 | 0.00 | 0.00 | 0.00 | 22 | 1008.3 |
| 20260504174505 | 66 | 314 | 12.0 | 17.0 | 0.00 | 0.00 | 0.00 | 21 | 1008.4 |
| 20260504174503 | 66 | 314 | 11.0 | 17.0 | 0.00 | 0.00 | 0.00 | 21 | 998.6 |
| 20260504174005 | 65 | 309 | 4.0 | 13.0 | 0.00 | 0.00 | 0.00 | 24 | 1008.3 |
| 20260504173505 | 63 | 298 | 3.0 | 9.0 | 0.00 | 0.00 | 0.00 | 24 | 1008.6 |
| 20260504173006 | 64 | 239 | 4.0 | 11.0 | 0.00 | 0.00 | 0.00 | 23 | 1008.7 |
| 20260504173002 | 64 | 239 | 4.0 | 11.0 | 0.00 | 0.00 | 0.00 | 23 | 999.0 |
| 20260504172504 | 65 | 260 | 4.0 | 14.0 | 0.00 | 0.00 | 0.00 | 23 | 1008.7 |
| 20260504171503 | 65 | 285 | 2.0 | 13.0 | 0.00 | 0.00 | 0.00 | 23 | 999.0 |
| 20260504170505 | 66 | 296 | 5.0 | 13.0 | 0.00 | 0.00 | 0.00 | 21 | 1008.8 |
| 20260504151005 | 63 | 265 | 6.0 | 12.0 | 0.00 | 0.00 | 0.00 | 26 | 1009.4 |
| 20260504150504 | 62 | 261 | 6.0 | 12.0 | 0.00 | 0.00 | 0.00 | 27 | 1009.3 |
| 20260504140505 | 58 | 251 | 5.0 | 11.0 | 0.00 | 0.00 | 0.00 | 33 | 1009.3 |
| 20260504130505 | 48 | 211 | 2.0 | 5.0 | 0.00 | 0.00 | 0.00 | 45 | 1009.4 |
| 20260504110504 | 43 | 221 | 2.0 | 3.0 | 0.00 | 0.00 | 0.00 | 51 | 1009.3 |
| 20260504100504 | 42 | 257 | 2.0 | 3.0 | 0.00 | 0.00 | 0.00 | 56 | 1009.7 |
| 20260504082006 | 46 | 194 | 3.0 | 6.0 | 0.00 | 0.00 | 0.00 | 49 | 1010.1 |
| 20260504081503 | 46 | 213 | 2.0 | 4.0 | 0.00 | 0.00 | 0.00 | 49 | 1000.8 |
| 20260504080507 | 46 | 216 | 2.0 | 5.0 | 0.00 | 0.00 | 0.00 | 50 | 1010.2 |
| 20260504050505 | 48 | 210 | 1.0 | 3.0 | 0.00 | 0.00 | 0.00 | 51 | 1011.4 |
| 20260504050006 | 49 | 210 | 2.0 | 4.0 | 0.00 | 0.00 | 0.00 | 49 | 1011.4 |
| 20260504050003 | 49 | 210 | 1.0 | 4.0 | 0.00 | 0.00 | 0.00 | 49 | 1002.1 |
| 20260504045505 | 49 | 210 | 2.0 | 4.0 | 0.00 | 0.00 | 0.00 | 47 | 1011.5 |
| 20260504045005 | 49 | 195 | 1.0 | 3.0 | 0.00 | 0.00 | 0.00 | 47 | 1011.5 |
| 20260504044505 | 49 | 196 | 2.0 | 5.0 | 0.00 | 0.00 | 0.00 | 48 | 1011.6 |